EW4885 Weather Reports


time (UTC)temp
F
wind
direction
speed
knots
gust
knots
rain 1hr
in
rain 24hr
in
rain mn
in
humidity
%
barometer
mb
20260905184508 76 13 2.6 6.1 0.00 0.00 0.00 64 1021.7
20260905183006 77 19 4.3 7.0 0.00 0.00 0.00 63 1021.5
20260905181506 78 15 4.3 8.7 0.00 0.00 0.00 61 1021.3
20260905180006 79 343 4.3 9.6 0.00 0.00 0.00 60 1021.2
20260905174505 80 350 6.1 9.6 0.00 0.00 0.00 57 1021.1
20260905173005 81 346 5.2 9.6 0.00 0.00 0.00 56 1021.0
20260905171504 82 5 5.2 8.7 0.00 0.00 0.00 55 1021.0
20260905170004 82 5 5.2 9.6 0.00 0.00 0.00 54 1020.9
20260905164503 83 39 6.1 12.2 0.00 0.00 0.00 51 1020.9
20260905163002 84 9 4.3 9.6 0.00 0.00 0.00 49 1020.9
20260905161505 84 29 6.1 12.2 0.00 0.00 0.00 49 1020.9
20260905160003 85 335 5.2 13.0 0.00 0.00 0.00 48 1020.8
20260905154501 85 331 3.5 7.8 0.00 0.00 0.00 45 1020.7
20260905153000 85 330 2.6 6.1 0.00 0.00 0.00 44 1020.7
20260905151600 87 236 2.6 7.0 0.00 0.00 0.00 43 1020.9
20260905150101 87 261 2.6 5.2 0.00 0.00 0.00 42 1021.0
20260905144559 87 309 3.5 7.0 0.00 0.00 0.00 44 1020.9
20260905143058 86 319 3.5 6.1 0.00 0.00 0.00 44 1021.0
20260905141559 87 279 3.5 7.8 0.00 0.00 0.00 43 1021.1
20260905140112 87 249 1.7 6.1 0.00 0.00 0.00 43 1021.0
20260905134601 87 296 4.3 7.0 0.00 0.00 0.00 43 1021.2
20260905133054 86 306 3.5 9.6 0.00 0.00 0.00 44 1021.4
20260905131555 86 315 4.3 7.0 0.00 0.00 0.00 44 1021.6
20260905130054 87 327 4.3 7.0 0.00 0.00 0.00 42 1021.6
20260905124551 86 345 2.6 7.8 0.00 0.00 0.00 44 1021.5
20260905123049 86 270 2.6 6.1 0.00 0.00 0.00 44 1021.6
20260905121550 85 36 2.6 8.7 0.00 0.00 0.00 46 1021.6
20260905120046 85 325 6.1 9.6 0.00 0.00 0.00 48 1021.6
20260905114546 84 47 4.3 7.8 0.00 0.00 0.00 46 1021.7
20260905113041 83 261 2.6 6.1 0.00 0.00 0.00 51 1021.6
20260905111540 81 236 1.7 6.1 0.00 0.00 0.00 54 1021.7
20260905110044 82 5 2.6 7.0 0.00 0.00 0.00 53 1021.7
20260905104533 82 229 3.5 6.1 0.00 0.00 0.00 54 1021.8
20260905103033 82 323 3.5 7.0 0.00 0.00 0.00 53 1021.9
20260905101530 82 284 2.6 7.0 0.00 0.00 0.00 54 1021.9
20260905100027 81 309 2.6 6.1 0.00 0.00 0.00 55 1022.0
20260905094524 80 51 1.7 5.2 0.00 0.00 0.00 57 1022.1
20260905093021 80 15 3.5 7.8 0.00 0.00 0.00 59 1022.0
20260905091518 79 21 1.7 6.1 0.00 0.00 0.00 60 1022.0
20260905090017 78 18 3.5 7.0 0.00 0.00 0.00 61 1021.9
20260905084510 76 9 2.6 7.0 0.00 0.00 0.00 61 1021.8
20260905083010 76 19 1.7 6.1 0.00 0.00 0.00 63 1021.8
20260905081505 75 355 2.6 7.0 0.00 0.00 0.00 65 1021.8
20260905080002 73 46 2.6 5.2 0.00 0.00 0.00 65 1021.7
20260905074558 72 66 0.0 0.9 0.00 0.00 0.00 67 1021.6
20260905073054 70 123 0.0 1.7 0.00 0.00 0.00 70 1021.4
20260905071551 68 103 0.9 2.6 0.00 0.00 0.00 73 1021.2
20260905070047 66 97 0.9 2.6 0.00 0.00 0.00 77 1021.2
20260905064538 65 186 0.0 0.0 0.00 0.00 0.00 80 1021.1
20260905063037 64 186 0.0 0.0 0.00 0.00 0.00 78 1020.9
20260905061540 62 230 0.0 0.0 0.00 0.00 0.00 83 1021.0
20260905060031 61 230 0.0 0.0 0.00 0.00 0.00 83 1020.7
20260905054532 61 175 0.0 0.0 0.00 0.00 0.00 84 1020.4
20260905053024 60 141 0.0 0.0 0.00 0.00 0.00 85 1020.3
20260905051522 60 136 0.0 0.0 0.00 0.00 0.00 85 1020.0
20260905050020 59 117 0.0 0.0 0.00 0.00 0.00 85 1020.0
20260905044526 59 117 0.0 0.0 0.00 0.00 0.00 85 1019.9
20260905043017 59 117 0.0 0.0 0.00 0.00 0.00 85 1019.8
20260905041515 60 101 0.0 0.0 0.00 0.00 0.00 84 1019.8
20260905040013 60 101 0.0 0.0 0.00 0.00 0.00 84 1019.8
20260905034511 61 101 0.0 0.0 0.00 0.00 0.00 83 1019.7
20260905033008 61 101 0.0 0.0 0.00 0.00 0.00 82 1019.5
20260905031506 62 327 0.0 0.0 0.00 0.00 0.00 82 1019.5
20260905030010 62 327 0.0 0.0 0.00 0.00 0.00 81 1019.2
20260905024502 63 327 0.0 0.0 0.00 0.00 0.00 80 1019.3
20260905023002 63 328 1.7 4.3 0.00 0.00 0.00 80 1019.2
20260905021500 62 326 0.0 0.0 0.00 0.00 0.00 82 1019.1
20260905020100 63 328 0.0 0.0 0.00 0.00 0.00 82 1019.0
20260905014602 63 335 0.0 0.0 0.00 0.00 0.00 83 1018.8
20260905013117 63 324 0.0 0.0 0.00 0.00 0.00 84 1018.8
20260905011558 63 5 0.0 0.0 0.00 0.00 0.00 82 1018.8
20260905010059 64 10 0.0 0.0 0.00 0.00 0.00 80 1019.0
20260905004627 65 10 0.0 0.0 0.00 0.00 0.00 79 1019.0
20260905003049 65 10 0.0 0.0 0.00 0.00 0.00 80 1019.0
20260905001556 66 12 0.0 0.0 0.00 0.00 0.00 79 1019.2
20260905000049 67 70 0.0 0.0 0.00 0.00 0.00 78 1018.8
20260904234540 67 104 0.0 0.0 0.00 0.00 0.00 77 1018.7
20260904233039 68 104 0.0 0.0 0.00 0.00 0.00 76 1018.6
20260904231538 68 104 0.0 0.0 0.00 0.00 0.00 75 1018.5
20260904230037 68 104 0.0 0.0 0.00 0.00 0.00 75 1018.5
20260904224534 68 104 0.0 1.7 0.00 0.00 0.00 75 1018.2
20260904223032 68 92 0.0 1.7 0.00 0.00 0.00 74 1018.1
20260904221531 69 105 0.9 3.5 0.00 0.00 0.00 74 1017.8
20260904220028 69 82 0.0 0.0 0.00 0.00 0.00 75 1017.9
20260904214527 70 15 0.0 0.0 0.00 0.00 0.00 75 1017.7
20260904213037 70 333 0.0 0.0 0.00 0.00 0.00 73 1017.6
20260904211527 71 333 0.0 0.0 0.00 0.00 0.00 71 1017.5
20260904210026 72 333 0.0 0.0 0.00 0.00 0.00 70 1017.4
20260904204522 73 323 0.9 2.6 0.00 0.00 0.00 69 1017.2
20260904203031 73 360 0.9 2.6 0.00 0.00 0.00 68 1016.9
20260904201521 74 93 0.0 1.7 0.00 0.00 0.00 68 1016.7
20260904200022 75 85 1.7 2.6 0.00 0.00 0.00 67 1016.6
20260904194521 76 73 0.9 2.6 0.00 0.00 0.00 65 1016.5
20260904193021 76 316 1.7 3.5 0.00 0.00 0.00 64 1016.5
20260904191520 77 31 0.9 1.7 0.00 0.00 0.00 63 1016.2
20260904190019 79 86 0.0 1.7 0.00 0.00 0.00 60 1016.0